TimePDT,TemperatureF,Dew PointF,Humidity,Sea Level PressureIn,VisibilityMPH,Wind Direction,Wind SpeedMPH,Gust SpeedMPH,PrecipitationIn,Events,Conditions,WindDirDegrees,DateUTC
12:53 AM,54.0,30.9,41,29.97,10.0,Calm,Calm,-,N/A,,Clear,0,2013-04-25 07:53:00
1:53 AM,46.0,33.1,61,29.98,10.0,Calm,Calm,-,N/A,,Clear,0,2013-04-25 08:53:00
2:53 AM,45.0,33.1,63,29.98,10.0,Calm,Calm,-,N/A,,Clear,0,2013-04-25 09:53:00
3:53 AM,46.9,33.1,59,29.99,10.0,Calm,Calm,-,N/A,,Clear,0,2013-04-25 10:53:00
4:53 AM,41.0,32.0,70,30.01,10.0,Calm,Calm,-,N/A,,Clear,0,2013-04-25 11:53:00
5:53 AM,43.0,32.0,65,30.01,10.0,Calm,Calm,-,N/A,,Clear,0,2013-04-25 12:53:00
6:53 AM,43.0,33.1,68,30.04,10.0,Calm,Calm,-,N/A,,Clear,0,2013-04-25 13:53:00
7:53 AM,46.9,35.1,63,30.05,10.0,Calm,Calm,-,N/A,,Clear,0,2013-04-25 14:53:00
8:53 AM,51.1,34.0,52,30.06,10.0,Calm,Calm,-,N/A,,Clear,0,2013-04-25 15:53:00
9:53 AM,55.9,34.0,44,30.06,10.0,Calm,Calm,-,N/A,,Clear,0,2013-04-25 16:53:00
10:53 AM,62.1,32.0,32,30.06,10.0,Calm,Calm,-,0.01,,Clear,0,2013-04-25 17:53:00
11:53 AM,68.0,30.9,25,30.05,10.0,Calm,Calm,-,N/A,,Clear,0,2013-04-25 18:53:00
12:53 PM,72.0,33.1,24,30.03,10.0,West,3.5,-,N/A,,Clear,260,2013-04-25 19:53:00
1:53 PM,77.0,30.0,18,30.02,10.0,Calm,Calm,-,N/A,,Clear,0,2013-04-25 20:53:00
2:53 PM,81.0,34.0,18,30.01,10.0,Variable,4.6,-,N/A,,Clear,0,2013-04-25 21:53:00
3:53 PM,80.1,36.0,20,29.99,10.0,WNW,11.5,17.3,N/A,,Clear,300,2013-04-25 22:53:00
4:53 PM,79.0,36.0,21,30.01,10.0,NNW,12.7,-,N/A,,Clear,340,2013-04-25 23:53:00
5:53 PM,75.9,37.0,24,30.02,10.0,NW,9.2,-,N/A,,Clear,320,2013-04-26 00:53:00
6:53 PM,75.0,39.9,28,30.04,10.0,NNW,6.9,-,N/A,,Clear,330,2013-04-26 01:53:00
7:53 PM,73.9,39.0,28,30.06,10.0,NW,5.8,-,N/A,,Clear,320,2013-04-26 02:53:00
8:53 PM,66.0,43.0,43,30.08,10.0,NNE,4.6,-,N/A,,Clear,30,2013-04-26 03:53:00
9:53 PM,64.9,41.0,42,30.11,10.0,Variable,3.5,-,N/A,,Clear,0,2013-04-26 04:53:00
10:53 PM,61.0,42.1,50,30.12,10.0,South,5.8,-,N/A,,Clear,170,2013-04-26 05:53:00
11:53 PM,59.0,42.1,53,30.12,10.0,Calm,Calm,-,N/A,,Clear,0,2013-04-26 06:53:00